"Sample Date","Sample Time","Sample Value","Units","Flow Rate","Sample Interval","Number Channels","Micron Size 0","Counts/Channel 0","Micron Size 1","Counts/Channel 1","Micron Size 2","Counts/Channel 2","Micron Size 3","Counts/Channel 3","Micron Size 4","Counts/Channel 4","Micron Size 5","Counts/Channel 5","Micron Size 6","Counts/Channel 6","Micron Size 7","Counts/Channel 7","Micron Size 8","Counts/Channel 8","Micron Size 9","Counts/Channel 9","Micron Size 10","Counts/Channel 10","Micron Size 11","Counts/Channel 11","Micron Size 12","Counts/Channel 12","Micron Size 13","Counts/Channel 13","Micron Size 14","Counts/Channel 14","Micron Size 15","Counts/Channel 15","Micron Size 16","Counts/Channel 16","Micron Size 17","Counts/Channel 17","Micron Size 18","Counts/Channel 18","Micron Size 19","Counts/Channel 19","Micron Size 20","Counts/Channel 20","Micron Size 21","Counts/Channel 21","Micron Size 22","Counts/Channel 22","Micron Size 23","Counts/Channel 23","Micron Size 24","Counts/Channel 24","Micron Size 25","Counts/Channel 25","Micron Size 26","Counts/Channel 26","Micron Size 27","Counts/Channel 27","Micron Size 28","Counts/Channel 28","Micron Size 29","Counts/Channel 29","Micron Size 30","Counts/Channel 30","Micron Size 31","Counts/Channel 31"
"04/09/08","13:00:01",29271.000,"cc",28332.361,6.00,6,0.100,20670.000,0.200,3888.000,0.300,1810.000,0.500,2025.000,1.000,878.000,5.000,0
"04/09/08","13:00:07",29380.000,"cc",28299.242,6.00,6,0.100,20491.000,0.200,3980.000,0.300,1876.000,0.500,2087.000,1.000,945.000,5.000,1.000
"04/09/08","13:00:13",30013.000,"cc",28403.770,6.00,6,0.100,20927.000,0.200,4145.000,0.300,1895.000,0.500,2119.000,1.000,927.000,5.000,0
"04/09/08","13:00:19",30334.000,"cc",28276.365,6.00,6,0.100,20984.000,0.200,4226.000,0.300,2010.000,0.500,2093.000,1.000,1021.000,5.000,0
"04/09/08","13:00:25",29793.000,"cc",28289.516,6.00,6,0.100,20395.000,0.200,4092.000,0.300,2040.000,0.500,2257.000,1.000,1009.000,5.000,0
"04/09/08","13:00:31",29284.000,"cc",28252.281,6.00,6,0.100,20408.000,0.200,3937.000,0.300,1931.000,0.500,2076.000,1.000,932.000,5.000,0
"04/09/08","13:00:37",29741.000,"cc",28261.615,6.00,6,0.100,20762.000,0.200,3973.000,0.300,1943.000,0.500,2084.000,1.000,979.000,5.000,0
"04/09/08","13:00:43",29384.000,"cc",28284.166,6.00,6,0.100,20495.000,0.200,3948.000,0.300,1874.000,0.500,2120.000,1.000,946.000,5.000,1.000
"04/09/08","13:00:49",30347.000,"cc",28336.357,6.00,6,0.100,21022.000,0.200,4192.000,0.300,1930.000,0.500,2181.000,1.000,1021.000,5.000,1.000
"04/09/08","13:00:55",30029.000,"cc",28301.908,6.00,6,0.100,20729.000,0.200,4032.000,0.300,2024.000,0.500,2245.000,1.000,999.000,5.000,0
"04/09/08","13:01:01",29815.000,"cc",28409.473,6.00,6,0.100,20689.000,0.200,4027.000,0.300,1992.000,0.500,2164.000,1.000,942.000,5.000,1.000
"04/09/08","13:01:07",29824.000,"cc",28238.746,6.00,6,0.100,20629.000,0.200,4117.000,0.300,1994.000,0.500,2130.000,1.000,954.000,5.000,0
"04/09/08","13:01:13",29511.000,"cc",28198.992,6.00,6,0.100,20484.000,0.200,4047.000,0.300,1972.000,0.500,2037.000,1.000,969.000,5.000,2.000
"04/09/08","13:01:19",29770.000,"cc",28295.291,6.00,6,0.100,20603.000,0.200,4060.000,0.300,1963.000,0.500,2110.000,1.000,1032.000,5.000,2.000
"04/09/08","13:01:25",30045.000,"cc",28369.057,6.00,6,0.100,20975.000,0.200,4094.000,0.300,1972.000,0.500,2050.000,1.000,954.000,5.000,0
"04/09/08","13:01:31",30063.000,"cc",28250.613,6.00,6,0.100,21028.000,0.200,4019.000,0.300,1943.000,0.500,2087.000,1.000,986.000,5.000,0
"04/09/08","13:01:37",29882.000,"cc",28298.584,6.00,6,0.100,20851.000,0.200,4069.000,0.300,1952.000,0.500,2044.000,1.000,965.000,5.000,1.000
"04/09/08","13:01:43",30066.000,"cc",28269.121,6.00,6,0.100,20849.000,0.200,4167.000,0.300,1854.000,0.500,2163.000,1.000,1032.000,5.000,1.000
"04/09/08","13:01:49",29834.000,"cc",28285.768,6.00,6,0.100,20653.000,0.200,4010.000,0.300,2029.000,0.500,2209.000,1.000,933.000,5.000,0
"04/09/08","13:01:55",29605.000,"cc",28306.566,6.00,6,0.100,20751.000,0.200,3964.000,0.300,1864.000,0.500,2109.000,1.000,917.000,5.000,0
"04/09/08","13:02:01",29631.000,"cc",28283.838,6.00,6,0.100,20496.000,0.200,4056.000,0.300,1956.000,0.500,2176.000,1.000,947.000,5.000,0
"04/09/08","13:02:07",29843.000,"cc",28208.633,6.00,6,0.100,20816.000,0.200,4004.000,0.300,1864.000,0.500,2177.000,1.000,982.000,5.000,0
"04/09/08","13:02:13",29787.000,"cc",28360.818,6.00,6,0.100,20689.000,0.200,4005.000,0.300,1955.000,0.500,2130.000,1.000,1005.000,5.000,3.000
"04/09/08","13:02:19",29708.000,"cc",28329.744,6.00,6,0.100,20824.000,0.200,4054.000,0.300,1861.000,0.500,2009.000,1.000,958.000,5.000,2.000
"04/09/08","13:02:25",30054.000,"cc",28371.932,6.00,6,0.100,20927.000,0.200,4092.000,0.300,1849.000,0.500,2264.000,1.000,922.000,5.000,0
"04/09/08","13:02:31",29728.000,"cc",28232.158,6.00,6,0.100,20667.000,0.200,3975.000,0.300,1908.000,0.500,2181.000,1.000,997.000,5.000,0
"04/09/08","13:02:37",30036.000,"cc",28335.863,6.00,6,0.100,20793.000,0.200,4150.000,0.300,1857.000,0.500,2243.000,1.000,992.000,5.000,1.000
"04/09/08","13:02:43",30460.000,"cc",28329.557,6.00,6,0.100,21123.000,0.200,4112.000,0.300,2019.000,0.500,2176.000,1.000,1030.000,5.000,0
"04/09/08","13:02:49",29820.000,"cc",28238.690,6.00,6,0.100,20656.000,0.200,4102.000,0.300,1905.000,0.500,2180.000,1.000,977.000,5.000,0
"04/09/08","13:02:55",29562.000,"cc",28312.992,6.00,6,0.100,20538.000,0.200,4018.000,0.300,1952.000,0.500,2090.000,1.000,963.000,5.000,1.000
"04/09/08","13:03:01",29515.000,"cc",28408.080,6.00,6,0.100,20527.000,0.200,3934.000,0.300,1931.000,0.500,2132.000,1.000,990.000,5.000,1.000
"04/09/08","13:03:07",29032.000,"cc",28332.904,6.00,6,0.100,20384.000,0.200,3845.000,0.300,1862.000,0.500,2019.000,1.000,922.000,5.000,0
"04/09/08","13:03:13",29674.000,"cc",28312.955,6.00,6,0.100,20688.000,0.200,4026.000,0.300,1865.000,0.500,2055.000,1.000,1040.000,5.000,0
"04/09/08","13:03:19",29900.000,"cc",28304.844,6.00,6,0.100,20870.000,0.200,4141.000,0.300,1820.000,0.500,2131.000,1.000,937.000,5.000,1.000
"04/09/08","13:03:25",30088.000,"cc",28239.994,6.00,6,0.100,21019.000,0.200,4046.000,0.300,1952.000,0.500,2084.000,1.000,986.000,5.000,1.000
"04/09/08","13:03:31",29790.000,"cc",28128.408,6.00,6,0.100,20753.000,0.200,4015.000,0.300,1886.000,0.500,2148.000,1.000,988.000,5.000,0
"04/09/08","13:03:37",29406.000,"cc",28279.322,6.00,6,0.100,20500.000,0.200,3934.000,0.300,1876.000,0.500,2175.000,1.000,921.000,5.000,0
"04/09/08","13:03:43",31077.000,"cc",28316.498,6.00,6,0.100,21256.000,0.200,4318.000,0.300,2156.000,0.500,2286.000,1.000,1061.000,5.000,0
"04/09/08","13:03:49",30243.000,"cc",28322.803,6.00,6,0.100,20912.000,0.200,4115.000,0.300,1981.000,0.500,2213.000,1.000,1022.000,5.000,0
"04/09/08","13:03:55",29710.000,"cc",28385.338,6.00,6,0.100,20418.000,0.200,4123.000,0.300,1929.000,0.500,2221.000,1.000,1016.000,5.000,3.000
"04/09/08","13:04:01",30033.000,"cc",28355.141,6.00,6,0.100,20826.000,0.200,4071.000,0.300,1974.000,0.500,2145.000,1.000,1016.000,5.000,1.000
"04/09/08","13:04:07",30183.000,"cc",28353.799,6.00,6,0.100,21226.000,0.200,3934.000,0.300,1928.000,0.500,2139.000,1.000,956.000,5.000,0
"04/09/08","13:04:13",29756.000,"cc",28332.129,6.00,6,0.100,20831.000,0.200,4001.000,0.300,1857.000,0.500,2079.000,1.000,988.000,5.000,0
"04/09/08","13:04:19",30171.000,"cc",28337.223,6.00,6,0.100,20775.000,0.200,4205.000,0.300,1966.000,0.500,2152.000,1.000,1073.000,5.000,0
"04/09/08","13:04:25",29444.000,"cc",28286.668,6.00,6,0.100,20667.000,0.200,3974.000,0.300,1798.000,0.500,2013.000,1.000,992.000,5.000,0
"04/09/08","13:04:31",30070.000,"cc",28238.443,6.00,6,0.100,21034.000,0.200,4072.000,0.300,1876.000,0.500,2053.000,1.000,1034.000,5.000,1.000
"04/09/08","13:04:37",29873.000,"cc",28343.725,6.00,6,0.100,20832.000,0.200,3991.000,0.300,1923.000,0.500,2122.000,1.000,1005.000,5.000,0
"04/09/08","13:04:43",29940.000,"cc",28390.719,6.00,6,0.100,20868.000,0.200,3970.000,0.300,1921.000,0.500,2167.000,1.000,1014.000,5.000,0
"04/09/08","13:04:49",29913.000,"cc",28303.641,6.00,6,0.100,20759.000,0.200,4027.000,0.300,1885.000,0.500,2248.000,1.000,993.000,5.000,1.000
"04/09/08","13:04:55",30408.000,"cc",28305.898,6.00,6,0.100,21155.000,0.200,4011.000,0.300,2042.000,0.500,2180.000,1.000,1020.000,5.000,0
"04/09/08","13:05:01",30074.000,"cc",28326.529,6.00,6,0.100,20900.000,0.200,4096.000,0.300,1988.000,0.500,2131.000,1.000,958.000,5.000,1.000
"04/09/08","13:05:07",30313.000,"cc",28456.143,6.00,6,0.100,21127.000,0.200,4066.000,0.300,1990.000,0.500,2122.000,1.000,1008.000,5.000,0
"04/09/08","13:05:13",29650.000,"cc",28392.096,6.00,6,0.100,20735.000,0.200,4058.000,0.300,1857.000,0.500,2036.000,1.000,961.000,5.000,3.000
"04/09/08","13:05:19",29951.000,"cc",28305.094,6.00,6,0.100,20925.000,0.200,4033.000,0.300,1880.000,0.500,2121.000,1.000,991.000,5.000,1.000
"04/09/08","13:05:25",29950.000,"cc",28280.791,6.00,6,0.100,20853.000,0.200,4102.000,0.300,1914.000,0.500,2113.000,1.000,967.000,5.000,1.000
"04/09/08","13:05:31",30196.000,"cc",28245.170,6.00,6,0.100,21239.000,0.200,4002.000,0.300,1913.000,0.500,2070.000,1.000,971.000,5.000,1.000
"04/09/08","13:05:37",29930.000,"cc",28262.635,6.00,6,0.100,21075.000,0.200,4010.000,0.300,1891.000,0.500,2025.000,1.000,929.000,5.000,0
"04/09/08","13:05:43",29686.000,"cc",28251.895,6.00,6,0.100,20840.000,0.200,3983.000,0.300,1900.000,0.500,2052.000,1.000,911.000,5.000,0
"04/09/08","13:05:49",29845.000,"cc",28317.494,6.00,6,0.100,20875.000,0.200,4111.000,0.300,1915.000,0.500,1960.000,1.000,983.000,5.000,1.000
"04/09/08","13:05:55",29997.000,"cc",28436.268,6.00,6,0.100,21002.000,0.200,4044.000,0.300,1843.000,0.500,2140.000,1.000,967.000,5.000,1.000
"04/09/08","13:06:01",29635.000,"cc",28320.967,6.00,6,0.100,20802.000,0.200,3955.000,0.300,1906.000,0.500,2064.000,1.000,908.000,5.000,0
"04/09/08","13:06:07",29328.000,"cc",28223.748,6.00,6,0.100,20437.000,0.200,3996.000,0.300,1854.000,0.500,2071.000,1.000,969.000,5.000,1.000
"04/09/08","13:06:13",29677.000,"cc",28150.945,6.00,6,0.100,20865.000,0.200,3951.000,0.300,1864.000,0.500,2101.000,1.000,895.000,5.000,1.000
"04/09/08","13:06:19",29995.000,"cc",28319.625,6.00,6,0.100,21078.000,0.200,4018.000,0.300,1838.000,0.500,2121.000,1.000,940.000,5.000,0
"04/09/08","13:06:25",30230.000,"cc",28354.496,6.00,6,0.100,21156.000,0.200,4003.000,0.300,1991.000,0.500,2157.000,1.000,922.000,5.000,1.000
"04/09/08","13:06:31",30277.000,"cc",28447.789,6.00,6,0.100,21133.000,0.200,4098.000,0.300,2000.000,0.500,2093.000,1.000,953.000,5.000,0
"04/09/08","13:06:37",30032.000,"cc",28309.881,6.00,6,0.100,21052.000,0.200,4107.000,0.300,1931.000,0.500,2012.000,1.000,930.000,5.000,0
"04/09/08","13:06:43",30273.000,"cc",28303.004,6.00,6,0.100,21039.000,0.200,4147.000,0.300,2051.000,0.500,2102.000,1.000,934.000,5.000,0
"04/09/08","13:06:49",30341.000,"cc",28134.481,6.00,6,0.100,21283.000,0.200,4171.000,0.300,1923.000,0.500,2036.000,1.000,928.000,5.000,0
"04/09/08","13:06:55",30268.000,"cc",28391.967,6.00,6,0.100,21079.000,0.200,4192.000,0.300,1990.000,0.500,2054.000,1.000,952.000,5.000,1.000
"04/09/08","13:07:01",29938.000,"cc",28379.889,6.00,6,0.100,20956.000,0.200,4040.000,0.300,1946.000,0.500,2076.000,1.000,920.000,5.000,0
"04/09/08","13:07:07",30752.000,"cc",28372.465,6.00,6,0.100,21583.000,0.200,4145.000,0.300,1943.000,0.500,2168.000,1.000,913.000,5.000,0
"04/09/08","13:07:13",30491.000,"cc",28277.328,6.00,6,0.100,21292.000,0.200,4094.000,0.300,2027.000,0.500,2162.000,1.000,915.000,5.000,1.000
"04/09/08","13:07:19",30181.000,"cc",28289.266,6.00,6,0.100,21075.000,0.200,4105.000,0.300,1979.000,0.500,2101.000,1.000,920.000,5.000,1.000
"04/09/08","13:07:25",30309.000,"cc",28326.402,6.00,6,0.100,21172.000,0.200,4088.000,0.300,1924.000,0.500,2164.000,1.000,961.000,5.000,0
"04/09/08","13:07:31",30430.000,"cc",28308.354,6.00,6,0.100,21309.000,0.200,4069.000,0.300,1984.000,0.500,2137.000,1.000,930.000,5.000,1.000
"04/09/08","13:07:37",30285.000,"cc",28285.680,6.00,6,0.100,21101.000,0.200,4097.000,0.300,2027.000,0.500,2130.000,1.000,928.000,5.000,2.000
"04/09/08","13:07:43",30311.000,"cc",28304.867,6.00,6,0.100,21196.000,0.200,4149.000,0.300,1961.000,0.500,2083.000,1.000,922.000,5.000,0
"04/09/08","13:07:49",30903.000,"cc",28345.904,6.00,6,0.100,21517.000,0.200,4162.000,0.300,2069.000,0.500,2239.000,1.000,916.000,5.000,0
"04/09/08","13:07:55",30488.000,"cc",28246.191,6.00,6,0.100,21302.000,0.200,4252.000,0.300,1906.000,0.500,2133.000,1.000,895.000,5.000,0
"04/09/08","13:08:01",30678.000,"cc",28295.065,6.00,6,0.100,21496.000,0.200,4189.000,0.300,1968.000,0.500,2124.000,1.000,900.000,5.000,1.000
"04/09/08","13:08:07",30646.000,"cc",28306.951,6.00,6,0.100,21343.000,0.200,4171.000,0.300,2076.000,0.500,2129.000,1.000,926.000,5.000,1.000
"04/09/08","13:08:13",30450.000,"cc",28365.531,6.00,6,0.100,21245.000,0.200,4179.000,0.300,1962.000,0.500,2190.000,1.000,873.000,5.000,1.000
"04/09/08","13:08:19",30138.000,"cc",28352.068,6.00,6,0.100,21125.000,0.200,4063.000,0.300,1940.000,0.500,2091.000,1.000,918.000,5.000,1.000
"04/09/08","13:08:25",30408.000,"cc",28403.691,6.00,6,0.100,21102.000,0.200,4266.000,0.300,1964.000,0.500,2091.000,1.000,985.000,5.000,0
"04/09/08","13:08:31",30315.000,"cc",28267.256,6.00,6,0.100,21162.000,0.200,4043.000,0.300,1951.000,0.500,2232.000,1.000,927.000,5.000,0
"04/09/08","13:08:37",30476.000,"cc",28314.932,6.00,6,0.100,21388.000,0.200,4099.000,0.300,1955.000,0.500,2081.000,1.000,953.000,5.000,0
"04/09/08","13:08:43",30329.000,"cc",28297.818,6.00,6,0.100,21181.000,0.200,4072.000,0.300,2055.000,0.500,2063.000,1.000,958.000,5.000,0
"04/09/08","13:08:49",30171.000,"cc",28282.225,6.00,6,0.100,21310.000,0.200,4081.000,0.300,1792.000,0.500,2069.000,1.000,919.000,5.000,0
"04/09/08","13:08:55",30036.000,"cc",28325.199,6.00,6,0.100,21101.000,0.200,4048.000,0.300,1952.000,0.500,2076.000,1.000,859.000,5.000,0
"04/09/08","13:09:01",30372.000,"cc",28359.029,6.00,6,0.100,21274.000,0.200,4002.000,0.300,2021.000,0.500,2163.000,1.000,912.000,5.000,0
"04/09/08","13:09:07",30432.000,"cc",28240.367,6.00,6,0.100,21115.000,0.200,4131.000,0.300,2042.000,0.500,2193.000,1.000,950.000,5.000,1.000
"04/09/08","13:09:13",30370.000,"cc",28351.695,6.00,6,0.100,21353.000,0.200,4052.000,0.300,1954.000,0.500,2115.000,1.000,896.000,5.000,0
"04/09/08","13:09:19",30357.000,"cc",28237.330,6.00,6,0.100,21177.000,0.200,4126.000,0.300,1984.000,0.500,2168.000,1.000,902.000,5.000,0
"04/09/08","13:09:25",30473.000,"cc",28389.732,6.00,6,0.100,21326.000,0.200,4140.000,0.300,1978.000,0.500,2129.000,1.000,900.000,5.000,0
"04/09/08","13:09:31",30291.000,"cc",28309.672,6.00,6,0.100,21233.000,0.200,4080.000,0.300,1949.000,0.500,2141.000,1.000,888.000,5.000,0
"04/09/08","13:09:37",30164.000,"cc",28338.565,6.00,6,0.100,21285.000,0.200,4057.000,0.300,1849.000,0.500,2090.000,1.000,883.000,5.000,0
"04/09/08","13:09:43",30066.000,"cc",28244.678,6.00,6,0.100,21284.000,0.200,3996.000,0.300,1876.000,0.500,2050.000,1.000,860.000,5.000,0
"04/09/08","13:09:49",30062.000,"cc",28262.623,6.00,6,0.100,21197.000,0.200,3980.000,0.300,1983.000,0.500,2079.000,1.000,822.000,5.000,1.000
"04/09/08","13:09:55",30357.000,"cc",28177.656,6.00,6,0.100,21476.000,0.200,3966.000,0.300,1994.000,0.500,2043.000,1.000,877.000,5.000,1.000
"04/09/08","13:10:01",30338.000,"cc",28306.031,6.00,6,0.100,21242.000,0.200,4087.000,0.300,1982.000,0.500,2119.000,1.000,908.000,5.000,0
"04/09/08","13:10:07",30571.000,"cc",28370.420,6.00,6,0.100,21357.000,0.200,4070.000,0.300,2095.000,0.500,2172.000,1.000,877.000,5.000,0
"04/09/08","13:10:13",30637.000,"cc",28398.008,6.00,6,0.100,21388.000,0.200,4180.000,0.300,2044.000,0.500,2145.000,1.000,880.000,5.000,0
"04/09/08","13:10:19",30396.000,"cc",28253.070,6.00,6,0.100,21213.000,0.200,4084.000,0.300,2053.000,0.500,2149.000,1.000,897.000,5.000,0
"04/09/08","13:10:25",30895.000,"cc",28314.715,6.00,6,0.100,21593.000,0.200,4185.000,0.300,2042.000,0.500,2165.000,1.000,910.000,5.000,0
"04/09/08","13:10:31",30542.000,"cc",28321.949,6.00,6,0.100,21344.000,0.200,4156.000,0.300,2018.000,0.500,2119.000,1.000,904.000,5.000,1.000
"04/09/08","13:10:37",30756.000,"cc",28345.908,6.00,6,0.100,21463.000,0.200,4213.000,0.300,1979.000,0.500,2151.000,1.000,950.000,5.000,0
"04/09/08","13:10:43",30726.000,"cc",28443.815,6.00,6,0.100,21456.000,0.200,4203.000,0.300,2032.000,0.500,2154.000,1.000,881.000,5.000,0
"04/09/08","13:10:49",30650.000,"cc",28296.352,6.00,6,0.100,21293.000,0.200,4207.000,0.300,2022.000,0.500,2214.000,1.000,914.000,5.000,0
"04/09/08","13:10:55",30558.000,"cc",28264.674,6.00,6,0.100,21246.000,0.200,4229.000,0.300,2046.000,0.500,2157.000,1.000,880.000,5.000,0
"04/09/08","13:11:01",30564.000,"cc",28295.160,6.00,6,0.100,21525.000,0.200,4130.000,0.300,1933.000,0.500,2116.000,1.000,859.000,5.000,1.000
"04/09/08","13:11:07",30559.000,"cc",28394.643,6.00,6,0.100,21427.000,0.200,4188.000,0.300,1952.000,0.500,2109.000,1.000,883.000,5.000,0
"04/09/08","13:11:13",30247.000,"cc",28194.170,6.00,6,0.100,21174.000,0.200,4077.000,0.300,2031.000,0.500,2077.000,1.000,888.000,5.000,0
"04/09/08","13:11:19",30064.000,"cc",28303.895,6.00,6,0.100,21186.000,0.200,4022.000,0.300,1915.000,0.500,2058.000,1.000,883.000,5.000,0
"04/09/08","13:11:25",30466.000,"cc",28311.559,6.00,6,0.100,21257.000,0.200,4175.000,0.300,1965.000,0.500,2156.000,1.000,913.000,5.000,0
"04/09/08","13:11:31",30647.000,"cc",28351.934,6.00,6,0.100,21460.000,0.200,4164.000,0.300,2021.000,0.500,2111.000,1.000,891.000,5.000,0
"04/09/08","13:11:37",30498.000,"cc",28314.203,6.00,6,0.100,21473.000,0.200,4113.000,0.300,1955.000,0.500,2102.000,1.000,853.000,5.000,2.000
"04/09/08","13:11:43",30344.000,"cc",28276.012,6.00,6,0.100,21354.000,0.200,4107.000,0.300,1859.000,0.500,2107.000,1.000,916.000,5.000,1.000
"04/09/08","13:11:49",30158.000,"cc",28300.049,6.00,6,0.100,21158.000,0.200,4161.000,0.300,1847.000,0.500,2092.000,1.000,900.000,5.000,0
"04/09/08","13:11:55",30357.000,"cc",28323.141,6.00,6,0.100,21371.000,0.200,4051.000,0.300,1879.000,0.500,2176.000,1.000,880.000,5.000,0
"04/09/08","13:12:01",30180.000,"cc",28235.746,6.00,6,0.100,21149.000,0.200,4136.000,0.300,1906.000,0.500,2079.000,1.000,910.000,5.000,0
"04/09/08","13:12:07",30784.000,"cc",28389.715,6.00,6,0.100,21525.000,0.200,4182.000,0.300,2008.000,0.500,2165.000,1.000,903.000,5.000,1.000
"04/09/08","13:12:13",30245.000,"cc",28336.434,6.00,6,0.100,21386.000,0.200,3991.000,0.300,1900.000,0.500,2055.000,1.000,913.000,5.000,0
"04/09/08","13:12:19",30014.000,"cc",28331.566,6.00,6,0.100,21049.000,0.200,4051.000,0.300,1974.000,0.500,2085.000,1.000,855.000,5.000,0
"04/09/08","13:12:25",31041.000,"cc",28408.291,6.00,6,0.100,21655.000,0.200,4169.000,0.300,2071.000,0.500,2184.000,1.000,962.000,5.000,0
"04/09/08","13:12:31",30880.000,"cc",28334.315,6.00,6,0.100,21405.000,0.200,4263.000,0.300,2037.000,0.500,2232.000,1.000,942.000,5.000,1.000
"04/09/08","13:12:37",29940.000,"cc",28223.045,6.00,6,0.100,21041.000,0.200,3954.000,0.300,1977.000,0.500,2078.000,1.000,890.000,5.000,0
"04/09/08","13:12:43",30525.000,"cc",28336.664,6.00,6,0.100,21471.000,0.200,4123.000,0.300,1945.000,0.500,2125.000,1.000,861.000,5.000,0
"04/09/08","13:12:49",30337.000,"cc",28215.543,6.00,6,0.100,21285.000,0.200,4152.000,0.300,1922.000,0.500,2104.000,1.000,874.000,5.000,0
"04/09/08","13:12:55",30160.000,"cc",28328.715,6.00,6,0.100,21126.000,0.200,4122.000,0.300,1977.000,0.500,2096.000,1.000,839.000,5.000,0
"04/09/08","13:13:01",30800.000,"cc",28168.402,6.00,6,0.100,21321.000,0.200,4316.000,0.300,2014.000,0.500,2185.000,1.000,963.000,5.000,1.000
"04/09/08","13:13:07",30782.000,"cc",28245.180,6.00,6,0.100,21532.000,0.200,4195.000,0.300,2045.000,0.500,2138.000,1.000,870.000,5.000,2.000
"04/09/08","13:13:13",30405.000,"cc",28349.928,6.00,6,0.100,21215.000,0.200,4135.000,0.300,1923.000,0.500,2202.000,1.000,929.000,5.000,1.000
"04/09/08","13:13:19",30466.000,"cc",28453.190,6.00,6,0.100,21491.000,0.200,4096.000,0.300,2006.000,0.500,2049.000,1.000,823.000,5.000,1.000
"04/09/08","13:13:25",30137.000,"cc",28319.334,6.00,6,0.100,21195.000,0.200,4122.000,0.300,1917.000,0.500,2040.000,1.000,863.000,5.000,0
"04/09/08","13:13:31",30312.000,"cc",28282.635,6.00,6,0.100,21321.000,0.200,4091.000,0.300,1885.000,0.500,2074.000,1.000,940.000,5.000,1.000
"04/09/08","13:13:37",30400.000,"cc",28304.393,6.00,6,0.100,21157.000,0.200,4141.000,0.300,2012.000,0.500,2160.000,1.000,930.000,5.000,0
"04/09/08","13:13:43",30577.000,"cc",28326.014,6.00,6,0.100,21426.000,0.200,4219.000,0.300,1969.000,0.500,2079.000,1.000,884.000,5.000,0
"04/09/08","13:13:49",30086.000,"cc",28337.566,6.00,6,0.100,20995.000,0.200,4147.000,0.300,1924.000,0.500,2135.000,1.000,884.000,5.000,1.000
"04/09/08","13:13:55",30744.000,"cc",28432.012,6.00,6,0.100,21610.000,0.200,4110.000,0.300,1941.000,0.500,2167.000,1.000,916.000,5.000,0
"04/09/08","13:14:01",30260.000,"cc",28207.615,6.00,6,0.100,21110.000,0.200,4161.000,0.300,1952.000,0.500,2156.000,1.000,876.000,5.000,5.000
"04/09/08","13:14:07",30326.000,"cc",28454.994,6.00,6,0.100,21402.000,0.200,4041.000,0.300,1989.000,0.500,2007.000,1.000,885.000,5.000,2.000
"04/09/08","13:14:13",30412.000,"cc",28214.940,6.00,6,0.100,21259.000,0.200,4100.000,0.300,1959.000,0.500,2156.000,1.000,936.000,5.000,2.000
"04/09/08","13:14:19",30162.000,"cc",28301.307,6.00,6,0.100,21161.000,0.200,4022.000,0.300,2028.000,0.500,2065.000,1.000,885.000,5.000,1.000
"04/09/08","13:14:25",30326.000,"cc",28286.600,6.00,6,0.100,21089.000,0.200,4083.000,0.300,2121.000,0.500,2166.000,1.000,867.000,5.000,0
"04/09/08","13:14:31",30794.000,"cc",28244.385,6.00,6,0.100,21481.000,0.200,4156.000,0.300,2059.000,0.500,2175.000,1.000,922.000,5.000,1.000
"04/09/08","13:14:37",30864.000,"cc",28368.188,6.00,6,0.100,21335.000,0.200,4163.000,0.300,2079.000,0.500,2317.000,1.000,970.000,5.000,0
"04/09/08","13:14:43",30676.000,"cc",28335.273,6.00,6,0.100,21326.000,0.200,4133.000,0.300,2037.000,0.500,2248.000,1.000,931.000,5.000,1.000
"04/09/08","13:14:49",30423.000,"cc",28284.527,6.00,6,0.100,21349.000,0.200,4066.000,0.300,1877.000,0.500,2220.000,1.000,911.000,5.000,0
"04/09/08","13:14:55",30282.000,"cc",28310.361,6.00,6,0.100,21164.000,0.200,4106.000,0.300,1985.000,0.500,2116.000,1.000,911.000,5.000,0
"04/09/08","13:15:01",30642.000,"cc",28435.818,6.00,6,0.100,21496.000,0.200,4127.000,0.300,2009.000,0.500,2164.000,1.000,846.000,5.000,0
"04/09/08","13:15:07",30516.000,"cc",28337.617,6.00,6,0.100,21356.000,0.200,4012.000,0.300,2003.000,0.500,2250.000,1.000,895.000,5.000,0
"04/09/08","13:15:13",30245.000,"cc",28186.137,6.00,6,0.100,21176.000,0.200,4014.000,0.300,1944.000,0.500,2190.000,1.000,921.000,5.000,0
"04/09/08","13:15:19",30311.000,"cc",28280.045,6.00,6,0.100,21054.000,0.200,4103.000,0.300,2040.000,0.500,2224.000,1.000,889.000,5.000,1.000
"04/09/08","13:15:25",30326.000,"cc",28318.854,6.00,6,0.100,21185.000,0.200,4120.000,0.300,2006.000,0.500,2145.000,1.000,870.000,5.000,0
"04/09/08","13:15:31",30407.000,"cc",28319.346,6.00,6,0.100,21157.000,0.200,4135.000,0.300,2042.000,0.500,2167.000,1.000,903.000,5.000,3.000
"04/09/08","13:15:37",30328.000,"cc",28378.014,6.00,6,0.100,21117.000,0.200,4230.000,0.300,1999.000,0.500,2136.000,1.000,846.000,5.000,0
"04/09/08","13:15:43",30343.000,"cc",28407.369,6.00,6,0.100,21220.000,0.200,4061.000,0.300,1957.000,0.500,2148.000,1.000,957.000,5.000,0
"04/09/08","13:15:49",30559.000,"cc",28274.926,6.00,6,0.100,21335.000,0.200,4124.000,0.300,1998.000,0.500,2164.000,1.000,938.000,5.000,0
"04/09/08","13:15:55",29924.000,"cc",28274.900,6.00,6,0.100,21051.000,0.200,4013.000,0.300,2002.000,0.500,1978.000,1.000,880.000,5.000,0
"04/09/08","13:16:01",30446.000,"cc",28268.123,6.00,6,0.100,21200.000,0.200,4116.000,0.300,2059.000,0.500,2178.000,1.000,893.000,5.000,0
"04/09/08","13:16:07",30771.000,"cc",28340.857,6.00,6,0.100,21368.000,0.200,4259.000,0.300,2049.000,0.500,2214.000,1.000,880.000,5.000,1.000